星链-5531 (STARLINK-5531 )

导读

STARLINK-5531是美国SpaceX公司星链计划的低轨通信卫星,于北京时间2023年1月26日发射入轨,属于星链卫星星座组网的组成部分。作为第二代星链卫星,它运行在近地轨道,配备激光星间链路与相控阵天线技术,为全球用户提供高速低延迟宽带互联网接入,助力偏远地区网络覆盖,支撑包括移动通信、特殊场景通信等多元应用,是星链全球通信网络规模化部署中的一颗卫星。

基本信息
目录编号:
55383
目录名称:
STARLINK-5531
国际标识:
2023-013BE
轨道中心:
EARTH
卫星名称:
星链-5531
卫星全名:
星链-5531 (STARLINK-5531 )
卫星状态:
在轨 (已飞行1236 天)
发射日期:
2023-01-26 UTC
国别 :
美国 (US)
星等 :
--
轨道信息
数据来源 国际轨道数据 AOE轨道数据
星历时间 2026-06-14T20:45:11+0800
15小时前
查看轨道信息
2026-06-13T06:00:00+0800
2天前
查看轨道信息
半长轴 6861.18km 6861.168km
偏心率 0.0000407 0.0001715
轨道倾角 43.007° 43.005°
近地点辐角 262.182° 229.885°
升交点赤经 101.809° 110.924°
平近点角 97.899° 240.008°
近地点 482.763km 481.854km
远地点 483.323km 484.208km
周期 94.267分钟 94.266分钟
每日圈数 15.275822 15.275862
详细信息
固有亮度:
5
最大亮度:
2.5
卫星平台:
Starlink v1.5
覆盖范围:
全球
运营商:
太空探索技术公司
运营商所在国:
美国
制造商(研发单位):
太空探索技术公司
制造商所在国:
美国
使用方式:
暂无
卫星简介
星链(Starlink)计划是由太空探索技术公司(SpaceX)提出的一个巨型低轨卫星互联网星座项目,计划在2019年至2024年间在太空搭建由约1.2万颗卫星组成的“星链”网络,其中1584颗将部署在地球上空550千米处的近地轨道,并从2020年开始工作。该卫星仍在工作。
2D轨道图
3D轨道图
轨道高度分析图
轨道倾角分析图
轨道综合分析图
查看轨道综合分析图